GFSCGP_700_temp_168.txt.gz
Temp
-1 -2 -2 -3 -4 -4 -6 -6 -6 -3 -4 -6 -5 -5 -3 -4 -4 -3 -2 -2 -1 1 1 2 4 5 3 4 4 4 4 5 5 6 6 6 6 7 7 7 7 7 7 7
-2 -1 -2 -3 -4 -5 -5 -5 -5 -4 -4 -6 -5 -4 -3 -3 -2 -2 -2 -1 -1 0 1 2 3 4 3 4 4 3 3 4 5 5 5 6 6 6 6 6 6 6 6 6
-2 -2 -3 -4 -4 -5 -5 -5 -5 -5 -5 -6 -6 -5 -2 -1 -1 -0 -1 -1 -0 0 1 1 3 3 3 3 3 3 3 4 4 5 5 6 6 6 6 6 6 6 6 6
-2 -2 -3 -3 -3 -4 -5 -4 -5 -5 -6 -5 -5 -4 -3 -2 -1 -1 0 0 0 0 1 1 2 3 2 2 3 3 3 3 4 4 5 5 5 6 6 6 6 6 6 6
-2 -3 -4 -2 -3 -4 -3 -5 -5 -5 -5 -5 -5 -5 -2 -2 -1 1 1 1 1 0 1 1 2 2 2 3 3 3 3 1 3 3 4 4 5 5 5 5 6 5 5 5
-2 -3 -2 -3 -3 -3 -3 -4 -3 -4 -4 -5 -3 -4 -1 0 1 1 0 -0 1 1 1 1 1 1 2 2 2 3 2 1 2 2 3 4 4 4 5 5 5 5 5 5
-3 -2 -2 -2 -3 -3 -3 -4 -5 -6 -8 -6 -2 -4 -1 0 -0 -0 -1 -0 1 1 1 1 1 1 1 1 3 3 2 1 1 2 2 3 3 4 4 5 5 5 5 4
-5 -3 -2 -2 -3 -4 -4 -4 -4 -4 -6 -3 -3 -4 1 -0 -0 0 -0 0 0 1 0 0 1 1 1 2 2 3 2 1 0 1 2 2 3 3 4 4 4 4 4 4
-4 -4 -3 -3 -3 -3 -4 -4 -4 -4 -3 -4 -2 -1 -2 -1 -0 0 1 0 1 1 0 0 -1 0 1 2 2 3 2 1 0 1 2 3 3 3 3 4 4 4 4 3
-4 -4 -3 -2 -2 -2 -3 -4 -4 -4 -4 -3 -3 -2 -3 -3 -1 -0 -0 0 1 1 1 0 -0 1 1 2 2 2 2 -0 0 2 2 2 2 3 3 3 3 3 3 3
-4 -4 -3 -3 -2 -3 -3 -4 -4 -4 -4 -3 -3 -2 -3 -4 -3 -0 -1 0 1 1 1 1 0 2 2 2 2 2 1 0 1 2 2 3 3 3 3 3 3 3 3 3
-4 -4 -5 -2 -2 -2 -3 -3 -4 -4 -4 -4 -4 -2 -3 -4 -2 -1 0 -0 -0 0 1 0 1 2 2 1 1 0 -0 -1 0 2 3 2 2 3 2 2 3 2 2 3
-4 -4 -5 -3 -2 -3 -4 -4 -4 -5 -5 -4 -4 -2 -3 -4 -2 -1 0 1 0 1 1 2 2 1 1 1 1 0 -1 -1 1 2 2 2 2 2 2 2 2 2 2 2
-4 -4 -4 -4 -4 -4 -4 -3 -3 -4 -5 -4 -3 -3 -1 -3 -3 -1 1 1 1 1 2 2 1 0 1 1 0 -1 -1 -0 2 1 1 2 2 2 2 2 2 2 2 1
-4 -5 -4 -4 -4 -4 -3 -3 -2 -3 -3 -4 -1 -3 -2 -3 -3 -2 0 1 1 1 1 1 1 0 -0 0 -0 -1 -0 2 1 1 1 2 2 1 2 1 1 1 1 1
-4 -5 -5 -4 -2 -3 -3 -1 -1 -1 -1 -1 -1 -1 -1 -2 -2 -1 1 0 1 1 1 1 0 0 0 -0 -1 1 1 1 1 1 2 1 1 1 1 1 1 1 0 -0
-4 -5 -5 -5 -3 -2 -1 -1 -1 -0 -0 -1 -1 -0 -1 -1 -2 -1 -1 0 0 0 0 0 0 0 0 0 0 1 1 1 1 1 1 1 1 1 1 1 0 0 -1 -1
-4 -5 -5 -5 -3 -5 -0 -1 -1 -1 -0 0 1 -1 -1 -1 -2 -2 -1 -1 -1 -0 0 0 1 1 1 1 1 1 1 1 1 1 1 1 0 0 0 -0 -0 -1 -2 -2
-3 -5 -5 -5 -5 -2 -0 -1 -1 -1 -0 0 1 0 -0 -1 -1 -1 -1 -1 -2 -1 -0 0 1 1 2 2 1 2 1 1 1 0 0 -0 -0 -0 -1 -1 -1 -2 -2 -3
-3 -4 -5 -6 -5 -4 -0 -1 -1 -1 -0 0 1 0 0 -0 -1 -1 -1 -1 -2 -1 -0 0 1 2 1 2 1 1 1 1 0 -0 -0 -1 -1 -1 -1 -2 -2 -3 -3 -3
-2 -3 -5 -6 -6 -2 -1 -1 -0 0 -0 0 1 1 1 0 -0 -1 -0 0 0 -0 0 1 1 1 1 1 1 1 0 0 -0 -1 -1 -1 -1 -2 -2 -2 -3 -3 -4 -4
-1 -2 -3 -4 -5 -3 -1 -0 -1 -1 -0 0 0 1 2 1 0 0 -0 0 1 1 1 0 1 1 1 0 0 -0 -0 -1 -1 -1 -2 -2 -2 -2 -3 -3 -3 -4 -4 -4
-1 -1 -1 -1 0 -0 -0 -0 -0 0 0 0 0 1 2 2 1 1 1 0 1 0 1 0 0 0 0 -0 -0 -1 -1 -1 -2 -2 -2 -2 -3 -3 -3 -4 -4 -4 -4 -4
-0 -0 -0 -1 0 -0 -0 -0 -0 0 0 1 0 1 1 1 1 1 1 0 0 0 -0 -0 -0 -0 -0 -0 -1 -1 -1 -2 -2 -2 -3 -3 -3 -4 -4 -4 -4 -5 -5 -5
-0 -0 1 1 1 0 0 1 1 1 1 1 1 1 1 1 1 1 0 -0 -0 -0 -0 -1 -1 -1 -1 -1 -1 -2 -2 -3 -3 -3 -3 -4 -4 -4 -4 -5 -5 -5 -5 -5
1 1 1 1 0 0 0 0 0 1 1 1 1 1 1 1 1 1 0 -0 -1 -1 -1 -1 -1 -1 -1 -2 -2 -2 -3 -3 -3 -3 -4 -4 -4 -5 -5 -5 -6 -6 -6 -6

GFSCGP_700_temp_171.txt.gz
Temp
-0 -1 -1 -2 -2 -3 -5 -5 -5 -4 -4 -5 -4 -4 0 -1 -3 -2 -2 -2 -2 -1 0 0 2 2 2 3 4 4 4 4 3 5 4 5 5 6 6 6 6 6 7 7
-1 -1 -1 -2 -3 -4 -5 -4 -3 -4 -4 -5 -4 -2 0 -1 -1 -1 -2 -1 -2 -1 -1 -0 1 3 3 3 3 4 3 4 4 3 4 4 5 5 6 6 6 6 6 6
-1 -1 -1 -2 -3 -3 -3 -4 -3 -5 -4 -5 -4 -3 -0 1 0 -1 -0 -0 -1 -1 -0 -0 1 2 2 3 3 4 3 3 4 3 4 4 5 5 5 6 6 6 6 6
-1 -2 -2 -3 -2 -3 -3 -3 -3 -4 -5 -5 -5 -4 -2 0 1 -0 -0 -0 0 -0 -0 0 1 1 2 3 3 3 3 3 4 3 4 4 4 4 5 5 6 6 6 6
-1 -2 -2 -2 -2 -3 -3 -3 -3 -5 -5 -5 -4 -5 -0 -1 -0 -0 -1 -0 1 1 0 1 2 1 2 2 3 3 3 3 3 3 3 4 4 5 5 5 5 5 5 5
-1 -1 -1 -2 -2 -3 -3 -3 -4 -4 -5 -5 -3 -4 -2 -1 -2 -2 -1 -1 -0 0 1 1 1 1 2 2 2 3 2 2 2 1 3 3 4 4 4 5 5 5 5 5
-2 -1 -1 -2 -3 -3 -3 -4 -4 -6 -7 -4 -2 -4 -1 -2 -3 -3 -1 -0 -1 -0 -0 0 1 1 2 2 2 2 2 2 2 1 2 3 3 3 4 4 5 4 4 4
-4 -3 -2 -3 -3 -4 -4 -4 -4 -4 -5 -3 -3 -4 0 -1 -3 -3 -1 0 -0 -0 -0 0 1 1 1 2 2 1 1 2 2 0 1 3 2 3 3 4 4 4 4 4
-4 -3 -2 -2 -3 -3 -4 -4 -4 -4 -4 -4 -3 -1 -1 -1 -2 -2 -1 -0 -1 0 0 0 -0 -0 1 2 1 1 2 2 1 1 1 2 1 2 3 3 3 4 4 3
-4 -4 -3 -2 -3 -3 -3 -4 -4 -4 -4 -3 -3 -1 -2 -2 -3 -2 -2 -1 -0 -1 -0 -0 -1 -0 1 1 0 2 2 1 1 1 0 -0 2 2 1 2 3 3 3 3
-4 -4 -3 -3 -3 -4 -4 -4 -4 -4 -4 -3 -3 -2 -2 -3 -4 -4 -3 -2 -1 -0 -0 -0 -0 -1 -1 1 1 1 1 1 1 0 -1 0 1 1 1 2 2 2 2 2
-4 -4 -5 -3 -2 -3 -3 -4 -5 -4 -4 -4 -5 -3 -2 -4 -4 -4 -2 -1 -1 0 0 -0 -0 -0 -1 -0 1 0 1 0 1 -1 0 1 1 1 2 2 2 2 2 2
-4 -5 -5 -3 -3 -3 -4 -4 -5 -5 -5 -5 -4 -2 -2 -4 -3 -2 -1 -1 -1 0 -0 -1 -1 -1 -1 0 0 1 1 1 1 -0 0 0 1 1 1 2 2 2 1 2
-4 -5 -4 -5 -4 -4 -5 -3 -4 -5 -6 -4 -4 -4 -1 -4 -3 -1 -0 -1 -1 -1 -1 -0 -1 -1 -1 -1 -1 0 -0 -0 1 0 0 0 1 2 2 2 2 1 1 1
-4 -4 -4 -4 -4 -4 -4 -3 -2 -3 -2 -6 -1 -2 -2 -3 -3 -1 -0 -1 -1 -1 -1 -1 -1 -1 -0 -1 -0 -0 -1 -1 -2 1 -0 -0 1 1 1 1 1 1 1 1
-4 -4 -5 -3 -2 -3 -3 -2 -2 -1 -2 -2 -2 -1 -2 -3 -4 -2 -1 -0 -1 0 -0 0 -0 -1 -0 -0 -0 -0 -1 -1 -2 -1 -1 -1 1 1 1 1 0 0 -0 -0
-5 -5 -5 -4 -3 -2 -1 -1 -1 -1 -2 -2 -1 -1 -2 -2 -3 -2 -1 -0 0 -0 0 0 0 0 -0 -0 -0 -2 -2 -2 -2 0 -1 -0 1 1 0 -0 -0 -0 -1 -1
-4 -4 -6 -5 -4 -5 -0 -1 -1 -1 -1 -1 -1 -1 -2 -1 -3 -2 -1 -1 -1 -0 -0 -0 -0 -0 -0 -1 -1 -1 -1 -1 -1 -0 -1 -0 1 0 -1 -1 -1 -1 -1 -2
-3 -4 -5 -5 -6 -2 -1 -1 -1 -1 -1 -0 -1 -1 -2 -2 -2 -2 -1 -1 -1 -1 -1 -0 -1 -1 -1 -1 -1 -0 0 -0 -0 -1 -0 -0 -1 -1 -1 -1 -1 -2 -2 -2
-3 -4 -5 -6 -6 -5 -0 -1 -1 -1 -0 -0 -1 -0 -0 -1 -0 -2 -2 -2 -1 -1 -1 -1 -0 -0 -1 -0 -0 -0 -0 -0 -1 -1 -1 -1 -1 -1 -1 -1 -2 -2 -3 -3
-2 -4 -5 -6 -7 -2 -1 -1 -1 -0 -0 -0 -0 -0 1 -0 -0 0 -1 -2 -2 -1 -1 -1 -1 -0 -0 -0 -0 -1 -1 -1 -1 -1 -1 -2 -2 -2 -2 -2 -3 -3 -3 -4
-1 -2 -2 -4 -6 -3 -1 -1 -1 -1 -0 -0 -0 -0 1 0 0 0 0 -2 -2 -1 -1 -2 -1 -1 -1 -1 -1 -1 -1 -1 -2 -2 -2 -2 -2 -2 -2 -3 -3 -3 -4 -4
-1 -0 -1 -1 0 -0 -1 -0 -1 -0 0 0 0 0 0 1 1 0 0 -0 -0 -1 -1 -1 -2 -2 -2 -2 -2 -2 -2 -2 -2 -2 -2 -2 -2 -3 -3 -3 -4 -4 -4 -4
-0 -1 -1 -1 1 0 -0 0 0 0 0 0 0 0 1 1 1 0 -0 -0 -1 -1 -1 -1 -2 -2 -2 -2 -2 -3 -2 -2 -2 -2 -2 -2 -3 -3 -4 -4 -4 -4 -4 -5
-1 -0 0 1 1 0 0 0 0 1 0 0 0 0 1 1 1 0 -0 -0 -1 -1 -1 -1 -1 -2 -2 -2 -2 -2 -2 -2 -2 -3 -3 -3 -3 -4 -4 -4 -4 -5 -5 -5
0 1 1 0 0 0 -0 -0 -0 0 0 0 0 1 1 1 1 0 -0 -1 -1 -1 -1 -1 -1 -2 -2 -2 -2 -2 -2 -3 -3 -3 -3 -3 -4 -4 -4 -5 -5 -5 -5 -5

GFSCGP_700_temp_174.txt.gz
Temp
1 -0 -1 -1 -1 -2 -2 -3 -3 -0 -1 -3 -4 -1 1 3 1 1 0 1 -0 -1 -1 -1 -0 -0 1 2 3 4 3 4 3 4 4 4 4 5 5 6 6 6 7 7
0 -0 -1 -1 -1 -2 -3 -4 -1 -1 -3 -4 -4 1 1 2 1 -0 -0 -0 -0 -1 -1 -1 -1 -1 1 2 2 3 4 3 3 2 3 4 4 5 5 6 6 6 6 6
-0 -0 -1 -2 -2 -2 -2 -3 -2 -4 -4 -5 -4 -2 1 0 -0 -0 -1 -1 -1 -1 -1 -2 -1 -1 0 1 2 3 3 3 2 3 3 3 4 4 5 5 6 6 6 6
-0 -0 -1 -1 -1 -3 -3 -3 -3 -4 -5 -4 -5 -3 -2 -1 -0 -1 -0 -1 -2 -1 -1 -1 -1 -1 0 2 1 3 3 3 1 3 3 3 4 5 4 5 5 6 6 6
-0 -1 -1 -1 -2 -2 -2 -3 -3 -4 -4 -5 -4 -4 -1 -0 -1 -0 -1 -1 -1 -1 -1 -1 -1 -0 -1 0 1 3 3 3 2 2 3 3 4 4 4 5 5 5 5 5
0 -1 -1 -1 -2 -3 -3 -2 -2 -4 -5 -4 -2 -3 -0 0 -2 -2 -2 -2 -1 -1 -0 -1 -1 -1 -1 -0 1 3 2 2 2 2 3 3 3 4 4 5 5 5 5 5
-0 -0 -1 -2 -2 -3 -4 -4 -2 -2 -3 -1 -2 -3 -2 -1 -1 -2 -2 -2 -1 -0 -0 -0 -1 -0 -0 -0 1 2 2 2 1 -0 3 3 3 3 4 4 4 4 4 4
-3 -2 -2 -2 -2 -4 -4 -4 -4 -3 -1 -0 -1 -2 1 -0 -1 -2 -2 -2 -1 -0 -0 -0 -0 -0 -1 -0 2 2 2 1 0 -3 1 1 3 3 3 4 4 4 4 4
-3 -3 -2 -2 -3 -3 -4 -4 -4 -4 -2 -3 -0 -1 -1 -0 -2 -1 -4 -3 -1 -1 -1 -1 0 -0 -1 -0 2 1 2 1 0 0 -0 1 3 3 3 3 3 3 3 3
-3 -4 -3 -3 -3 -3 -4 -4 -4 -4 -3 -2 1 0 0 -1 -3 -3 -4 -2 -2 -1 -0 -1 -0 -0 -1 -0 1 1 1 0 1 0 -1 1 2 2 2 2 3 3 3 3
-3 -4 -3 -4 -3 -3 -4 -4 -4 -5 -4 -3 -1 0 -1 -2 -4 -5 -3 -3 -2 -1 -1 -1 -1 -1 -1 -0 0 1 1 0 -0 0 0 0 2 2 1 2 2 2 2 2
-3 -4 -5 -4 -3 -3 -3 -4 -5 -4 -3 -4 -4 -2 -2 -3 -4 -5 -3 -2 -2 -2 -1 -1 -1 -1 -1 -1 -1 -1 0 0 1 0 -1 0 0 1 2 1 2 1 1 1
-3 -4 -4 -2 -2 -3 -3 -4 -5 -5 -5 -4 -3 -1 -1 -3 -4 -4 -3 -2 -2 -1 -1 -1 -1 -1 -1 -1 -1 -1 -1 -0 -1 -0 -0 -0 -0 1 1 1 1 1 1 1
-4 -4 -4 -3 -3 -4 -4 -4 -4 -5 -5 -4 -3 -2 -1 -4 -5 -4 -3 -3 -2 -1 -1 -1 -1 -2 -2 -1 -1 -1 -1 -1 -1 -1 -1 -1 1 1 2 1 1 2 1 1
-4 -4 -4 -3 -4 -4 -4 -2 -2 -5 -4 -5 -2 -3 -3 -4 -5 -3 -3 -3 -2 -2 -1 -1 -2 -2 -2 -1 -1 -1 -2 -1 -4 -1 -1 0 1 1 1 1 1 1 0 0
-4 -4 -4 -2 -2 -2 -2 -1 -2 -2 -2 -2 -3 -4 -3 -4 -4 -3 -3 -3 -2 -2 -2 -2 -2 -2 -2 -1 -1 -1 -3 -4 -4 -2 -1 -0 0 0 0 -0 -0 0 -0 -0
-5 -4 -5 -4 -2 -2 -1 -1 -1 -2 -2 -3 -3 -3 -3 -3 -3 -2 -2 -2 -2 -1 -2 -2 -2 -2 -1 -1 -1 -2 -2 -3 -3 -3 -1 -0 -0 -0 -0 -0 -0 -1 -0 -1
-4 -4 -5 -5 -4 -1 -0 -1 -1 -2 -2 -2 -1 -2 -2 -3 -3 -2 -2 -2 -2 -1 -1 -2 -2 -1 -1 -1 -2 -3 -3 -3 -3 -2 -2 -0 -0 -0 -1 -1 -1 -1 -1 -2
-2 -4 -5 -6 -4 -2 -0 -1 -1 -1 -1 -1 -1 -2 -2 -2 -2 -2 -1 -1 -1 -1 -0 -1 -1 -1 -2 -2 -2 -2 -2 -2 -2 -2 -1 -1 -1 -1 -0 -1 -2 -2 -2 -2
-2 -3 -5 -7 -5 -1 -0 -1 -1 -1 -1 -0 -1 -1 -1 -2 -2 -2 -2 -1 -1 -1 -1 -1 -1 -1 -1 -2 -2 -2 -2 -2 -1 -1 -1 -1 -1 -1 -1 -2 -2 -2 -3 -3
-3 -4 -5 -7 -6 -2 -0 -1 -1 -1 -0 0 -0 -1 -1 -1 -2 -2 -3 -2 -1 -1 -1 -1 -2 -2 -2 -2 -2 -2 -2 -2 -1 -1 -1 -1 -2 -2 -2 -2 -3 -3 -3 -4
-0 -1 -3 -6 -6 -2 -0 -1 -1 -1 -1 0 -0 -0 -0 -1 -1 -2 -2 -3 -2 -2 -1 -1 -2 -2 -2 -2 -2 -1 -2 -1 -1 -1 -1 -2 -2 -2 -3 -3 -3 -4 -4 -4
-1 0 -0 -1 1 0 -0 -0 -0 -0 -0 0 -0 0 -0 0 -1 -1 -3 -3 -2 -2 -1 -1 -1 -1 -1 -1 -1 -2 -2 -2 -2 -2 -2 -2 -3 -3 -3 -4 -4 -4 -4 -4
-0 -0 -0 -0 1 0 -0 -0 -0 0 0 0 0 0 0 0 0 0 0 -1 -2 -1 -1 -1 -1 -1 -1 -1 -1 -2 -2 -2 -2 -2 -3 -3 -3 -3 -4 -4 -4 -5 -5 -5
-0 -0 0 1 1 1 0 -0 -0 -0 0 0 0 0 0 0 0 -0 -1 -0 -0 -1 -1 -1 -1 -2 -2 -2 -2 -2 -3 -3 -3 -3 -3 -4 -4 -4 -5 -5 -5 -5 -5 -5
0 0 0 1 1 0 -0 -0 -0 -0 0 0 0 0 0 0 0 -0 -0 -0 -1 -1 -1 -1 -1 -2 -2 -2 -2 -2 -2 -3 -3 -3 -4 -4 -4 -5 -5 -5 -5 -5 -5 -6

GFSCGP_700_temp_180.txt.gz
Temp
4 3 2 1 0 -0 -0 -0 -1 -0 -1 -2 -2 -2 0 1 1 0 0 0 -0 -0 0 1 1 2 2 1 2 1 2 3 3 3 4 4 4 2 1 3 4 4 5 6
2 3 2 1 1 -0 -1 -1 -0 -1 -1 -2 -2 -2 0 1 1 0 0 0 1 0 0 1 1 1 1 1 1 0 1 1 2 2 2 3 3 3 2 2 1 3 5 5
2 2 1 1 1 -0 -1 -1 -1 -2 -2 -3 -2 -1 -0 1 1 1 1 1 -0 -1 -0 1 0 -0 -0 -0 0 -0 1 0 1 1 1 2 2 2 2 2 1 2 4 5
3 3 2 2 1 -1 -2 -1 -2 -2 -3 -3 -3 -3 -2 1 1 1 1 0 0 -0 -0 0 0 -0 -1 -1 -1 -0 -0 -1 -1 0 1 1 2 2 2 2 1 3 4 4
3 2 2 1 1 -1 -1 -2 -2 -2 -3 -3 0 -3 -1 0 1 1 1 1 0 -1 -1 -0 -0 -1 -1 -1 -1 -1 -1 -1 -1 -1 0 1 1 2 2 1 2 2 3 4
3 2 2 1 0 -1 -2 -3 -2 -1 -2 -5 0 -3 -1 0 1 1 1 0 0 -0 -1 -2 -1 -0 -1 -1 -1 -1 -1 -1 -1 -1 0 1 1 1 1 0 -1 1 3 3
1 2 1 0 -0 -1 -2 -3 -3 -5 -6 -4 0 -1 -0 1 1 1 0 -1 -1 -1 -3 -2 -4 -3 -2 -2 -1 -1 -1 -2 -1 -1 -1 0 0 1 1 0 -0 1 3 3
-0 -0 0 0 -1 -2 -3 -3 -4 -5 -5 -3 -2 -1 1 1 0 -0 -1 -1 -2 -3 -3 -1 -2 -3 -3 -2 -1 -1 -2 -2 -1 -1 -1 -0 -0 -0 0 0 2 1 2 2
-1 -1 0 -1 -1 -2 -2 -3 -3 -4 -3 -4 -1 1 0 1 0 -1 -1 -2 -3 -4 -3 -2 -2 -3 -3 -2 -1 -2 -2 -2 -1 -2 -2 -1 -0 -0 0 1 1 1 1 2
-1 -2 0 -1 -1 -1 -2 -3 -3 -3 -5 -5 -2 -1 0 -1 -2 -3 -3 -3 -4 -4 -3 -3 -3 -3 -2 -2 -2 -2 -2 -2 -2 -2 -2 -1 -1 -0 -0 -3 -0 1 1 2
-1 -3 -0 -2 -1 -1 -2 -2 -3 -4 -4 -7 -4 -2 -0 -1 -2 -3 -4 -4 -4 -4 -4 -3 -3 -3 -3 -2 -2 -2 -2 -2 -2 -2 -2 -1 -2 -0 -1 -1 -1 0 1 1
-2 -2 -3 -1 1 -0 -1 -2 -2 -3 -3 -3 -4 -4 -1 -1 -3 -3 -5 -4 -4 -4 -4 -3 -4 -4 -3 -2 -2 -2 -2 -2 -2 -2 -1 -1 -3 0 -1 -3 -1 -0 1 2
-2 -2 -3 -1 -0 -1 -1 -2 -2 -3 -3 -3 -4 -3 -0 -2 -3 -3 -4 -4 -3 -4 -4 -3 -3 -3 -2 -2 -3 -3 -2 -2 -2 -2 -2 -5 -4 -2 -1 -1 -1 0 1 -0
-3 -3 -3 -2 -1 -2 -3 -2 -3 -3 -3 -3 -3 -3 -2 -2 -3 -4 -4 -4 -4 -4 -4 -4 -4 -3 -3 -3 -2 -2 -2 -2 -2 -2 -3 -4 -5 -3 -1 -1 -1 -0 0 0
-4 -4 -3 -3 -3 -2 -2 -1 -1 -3 -3 -3 -1 -3 -2 -3 -3 -4 -4 -4 -4 -4 -3 -4 -4 -3 -3 -3 -2 -2 -2 -2 -3 -3 -4 -5 -5 -3 -2 -1 -1 -1 -0 -0
-3 -4 -3 -3 -1 -2 -2 -1 -1 -0 -1 -2 -2 -2 -1 -1 -2 -3 -3 -4 -4 -4 -3 -4 -4 -3 -3 -2 -2 -3 -3 -3 -3 -4 -4 -5 -5 -3 -2 -2 -1 -1 -0 -0
-4 -4 -5 -4 -2 -2 -1 0 -0 -0 -0 -1 -2 -1 -1 -0 -2 -3 -3 -3 -3 -4 -4 -3 -3 -2 -3 -3 -2 -3 -3 -3 -3 -3 -4 -4 -4 -4 -4 -2 -2 -1 -1 -1
-4 -4 -5 -5 -3 -4 0 -0 0 -0 0 -1 -1 -1 -1 -1 -2 -3 -3 -3 -3 -3 -3 -3 -3 -3 -3 -3 -3 -3 -3 -3 -3 -3 -3 -4 -5 -4 -3 -2 -1 -1 -2 -1
-4 -4 -5 -5 -4 -2 1 1 0 -0 1 -0 -1 -1 -1 -0 -1 -3 -3 -2 -2 -3 -3 -3 -3 -3 -3 -3 -2 -3 -3 -3 -3 -3 -4 -4 -4 -3 -2 -2 -2 -2 -1 -1
-4 -5 -5 -4 -5 -4 0 1 0 -0 0 -0 -0 -1 -1 -1 -1 -2 -3 -2 -2 -2 -3 -3 -3 -3 -3 -3 -3 -3 -4 -4 -4 -4 -4 -4 -4 -3 -3 -2 -2 -2 -2 -2
-5 -7 -6 -6 -5 -3 1 1 -0 -1 -0 -0 -0 -0 -1 -1 -1 -2 -3 -2 -2 -2 -2 -3 -4 -3 -4 -4 -4 -4 -4 -4 -4 -4 -4 -4 -4 -3 -2 -2 -2 -3 -3 -3
-2 -5 -6 -6 -5 -4 1 0 0 0 -0 -0 0 0 -1 -1 -1 -3 -3 -2 -2 -2 -2 -3 -3 -3 -4 -4 -4 -4 -4 -4 -4 -4 -3 -3 -3 -3 -2 -3 -3 -3 -4 -4
-2 -2 -1 -1 1 1 1 1 1 1 0 -0 0 0 -0 -0 -1 -3 -2 -2 -2 -2 -2 -3 -3 -3 -3 -3 -3 -4 -4 -4 -4 -5 -4 -3 -3 -3 -3 -4 -4 -4 -4 -4
-2 -2 -2 -1 1 1 1 1 1 1 -0 -0 -0 -0 -0 -0 -0 -2 -3 -2 -2 -2 -2 -2 -2 -2 -2 -3 -3 -3 -3 -3 -2 -3 -2 -3 -3 -3 -3 -3 -4 -4 -5 -4
-2 -2 -1 -1 0 1 1 1 1 1 0 -0 0 0 -0 0 -0 -1 -2 -1 -2 -2 -2 -2 -2 -2 -2 -2 -2 -2 -2 -2 -2 -2 -3 -3 -3 -3 -4 -4 -5 -5 -4 -4
-3 -2 -1 -0 0 0 1 1 1 1 0 0 0 0 0 -0 -0 -0 -1 -1 -1 -2 -1 -1 -1 -2 -2 -2 -2 -2 -2 -3 -3 -3 -3 -3 -4 -4 -4 -5 -5 -4 -4 -5

GFSCGP_700_temp_186.txt.gz
Temp
6 5 5 4 3 3 2 2 2 2 1 2 3 2 3 2 2 2 1 1 1 1 1 1 1 1 1 1 1 1 1 1 2 2 2 2 2 3 2 3 2 2 3 2
5 5 4 4 3 2 2 1 2 1 1 0 2 3 3 2 2 1 1 1 1 1 0 0 0 0 0 0 0 0 0 0 0 1 1 1 1 1 2 3 3 3 2 1
5 4 4 3 2 2 2 1 0 -0 -0 1 1 2 3 2 1 0 1 0 1 1 0 0 0 0 -0 -0 -1 -1 -0 0 0 -1 -0 0 0 1 1 2 3 3 2 1
4 4 4 3 2 2 2 1 -0 -1 -2 -2 -1 -4 2 2 1 1 1 1 0 0 -0 -0 -0 -1 -1 -1 -1 -1 -2 -1 -1 -1 -1 -0 0 0 1 1 2 2 2 1
3 3 3 3 2 1 1 0 -1 -1 -1 -2 -1 -4 2 1 1 1 0 -0 -0 -1 -1 -1 -1 -1 -1 -1 -1 -1 -1 -0 -0 -1 -0 -1 -0 -0 0 0 1 1 0 -0
3 2 3 2 2 0 1 -0 0 -1 -2 -5 -1 -2 0 1 1 0 -0 -1 -1 -1 -1 -1 -1 -1 -0 0 -0 -0 -0 0 0 -1 -1 -1 -1 -0 0 0 1 1 -1 -0
2 3 2 2 1 0 -0 -1 -3 -5 -7 -5 -1 -2 2 1 0 -0 -1 -1 -1 -2 -3 -3 -2 -1 -1 -1 -0 -0 -1 -0 0 0 -2 -2 -1 -1 -1 -0 0 0 -0 -0
1 1 1 1 -0 -1 -2 -2 -3 -8 -8 -4 -3 -5 2 1 1 0 -0 -1 -2 -3 -3 -1 -2 -2 -1 -0 -0 -1 -1 -2 -1 -2 -3 -3 -2 -1 -1 0 0 -1 -1 -0
-0 -1 0 0 -1 -1 -2 -2 -3 -4 -4 -6 -3 -1 0 1 0 -0 -1 -2 -2 -3 -3 -4 -4 -4 -3 -2 -2 -2 -3 -3 -3 -3 -4 -3 -3 -1 -2 -2 -2 -2 -1 -1
-1 -2 -1 -0 -1 -1 -2 -2 -3 -4 -8 -7 -4 -2 -1 1 1 -1 -1 -2 -2 -4 -4 -4 -4 -3 -4 -4 -3 -3 -4 -4 -4 -4 -3 -3 -2 -2 -2 -2 -2 -2 -1 -1
-1 -2 -2 -2 -1 -1 -2 -3 -3 -4 -4 -8 -6 -3 -0 -0 -1 -1 -2 -2 -3 -4 -5 -5 -4 -4 -4 -4 -3 -4 -4 -4 -4 -4 -4 -4 -3 -3 -3 -3 -2 -2 -2 -1
-2 -2 -3 -3 -1 -2 -2 -2 -2 -3 -4 -4 -4 -4 0 0 -1 -2 -3 -3 -3 -4 -5 -5 -4 -4 -4 -4 -3 -3 -3 -3 -3 -4 -4 -3 -4 -4 -4 -3 -2 -2 -2 -2
-3 -3 -4 -3 -2 -2 -2 -2 -3 -3 -4 -4 -5 -3 2 0 -1 -3 -2 -3 -3 -4 -5 -4 -4 -4 -4 -4 -3 -3 -3 -4 -3 -3 -3 -4 -3 -4 -4 -3 -2 -2 -2 -5
-4 -4 -4 -4 -4 -4 -4 -4 -4 -4 -5 -5 -4 -2 2 -0 -2 -2 -2 -2 -3 -2 -5 -5 -4 -4 -4 -4 -4 -3 -3 -3 -3 -3 -4 -3 -4 -4 -3 -4 -3 -4 -5 -5
-4 -4 -4 -4 -4 -4 -4 -4 -3 -4 -2 -6 0 -3 1 -1 -3 -2 -2 -2 -3 -3 -5 -5 -4 -5 -4 -4 -3 -3 -4 -3 -3 -4 -3 -4 -4 -3 -3 -4 -4 -5 -3 -3
-5 -5 -5 -5 -5 -4 -4 -3 -1 -1 -1 -3 -1 -1 -0 -2 -2 -2 -2 -2 -3 -3 -3 -4 -3 -4 -4 -3 -4 -4 -4 -3 -3 -4 -4 -4 -3 -3 -4 -5 -5 -4 -3 -3
-6 -6 -6 -6 -5 -5 -5 -1 -0 -1 -0 -1 -0 0 -1 -1 -1 -2 -2 -3 -3 -4 -3 -3 -4 -4 -3 -4 -3 -3 -4 -4 -3 -4 -4 -4 -5 -5 -5 -5 -5 -4 -3 -3
-6 -6 -7 -6 -5 -5 -3 -2 -1 -1 1 0 0 -1 -1 -1 -1 -2 -2 -3 -3 -3 -2 -3 -4 -4 -3 -3 -4 -4 -4 -4 -4 -4 -5 -5 -6 -5 -6 -6 -5 -4 -4 -4
-5 -5 -6 -6 -5 -4 -4 -1 -1 -2 1 1 0 -0 -0 -1 -1 -2 -3 -3 -3 -3 -4 -3 -4 -4 -3 -4 -3 -4 -4 -4 -4 -5 -5 -5 -6 -6 -6 -6 -5 -4 -4 -4
-4 -5 -7 -6 -6 -6 -2 -1 -1 -2 -0 1 0 -0 -0 -0 -1 -2 -2 -3 -3 -3 -3 -4 -4 -4 -4 -3 -4 -4 -4 -5 -5 -5 -5 -5 -5 -5 -6 -6 -5 -5 -5 -5
-6 -6 -6 -6 -6 -4 -4 -2 -4 -3 -0 -0 -1 -1 -1 -1 -1 -2 -2 -3 -3 -3 -4 -4 -4 -4 -4 -4 -4 -4 -4 -5 -5 -5 -4 -5 -5 -5 -5 -6 -6 -6 -5 -6
-7 -7 -6 -6 -6 -5 -1 -2 -3 -2 -1 -1 -1 -1 -1 -1 -1 -2 -1 -1 -2 -2 -3 -4 -4 -4 -4 -4 -4 -4 -5 -5 -5 -5 -5 -5 -6 -6 -6 -6 -6 -6 -6 -5
-8 -7 -7 -6 -5 -3 -3 -3 -2 -2 -2 -1 -1 -1 -1 -1 -1 -2 -2 -1 -2 -1 -2 -3 -4 -4 -4 -5 -5 -4 -5 -5 -5 -5 -5 -5 -5 -6 -6 -6 -5 -6 -6 -5
-7 -7 -7 -7 -6 -5 -3 -3 -3 -2 -2 -2 -1 -1 -1 -1 -1 -1 -2 -2 -3 -2 -2 -2 -3 -3 -4 -5 -5 -5 -5 -5 -5 -5 -5 -5 -6 -7 -6 -6 -5 -5 -5 -5
-8 -7 -6 -6 -6 -5 -5 -4 -3 -2 -2 -2 -1 -1 -1 -1 -1 -1 -2 -2 -3 -3 -3 -3 -3 -3 -3 -4 -5 -4 -4 -4 -5 -5 -5 -5 -5 -5 -5 -5 -6 -6 -6 -6
-7 -7 -7 -6 -4 -5 -4 -4 -3 -3 -2 -1 -1 -1 -1 -1 -1 -1 -2 -2 -2 -2 -3 -4 -3 -4 -4 -4 -4 -4 -4 -5 -5 -5 -4 -4 -4 -4 -5 -5 -5 -5 -5 -6

GFSCGP_700_temp_192.txt.gz
Temp
5 5 5 5 4 4 4 3 3 3 2 3 4 5 6 5 4 3 2 2 2 2 1 1 1 1 0 0 0 -0 -0 0 -0 -0 -0 -0 0 1 1 2 2 3 3 3
5 5 5 4 4 4 3 3 3 3 2 2 4 5 5 4 3 3 3 2 1 1 1 1 1 0 0 -0 -1 -1 -0 -0 -0 -0 -0 -0 -0 0 1 1 2 2 3 2
5 5 5 4 3 3 3 2 2 1 2 3 3 5 5 4 3 3 2 2 1 1 1 0 0 -0 -1 -1 -1 -1 -1 -1 -1 -1 -1 -0 -0 0 0 1 1 1 2 2
4 4 4 4 3 3 2 2 1 1 1 -1 1 -2 5 4 3 3 2 1 1 0 0 -0 -1 -1 -1 -1 -1 -0 -0 -1 -1 -1 -1 -1 -0 -0 -0 -0 -0 -0 0 2
3 3 3 3 3 2 1 1 1 1 -0 -1 -0 -3 4 3 3 2 2 1 1 -0 -1 -1 -1 -2 -2 -2 -2 -1 -0 1 -0 -1 -1 -1 -1 -0 -0 -0 -0 -0 -0 0
3 3 3 2 2 1 1 0 1 0 -1 -6 -1 -1 3 3 2 2 1 1 0 -1 -1 -1 -1 -1 -2 -2 -1 -1 -1 -1 -1 -1 -1 -1 -1 -1 -1 -0 -1 -1 -1 -1
2 2 2 1 1 1 0 0 -1 -5 -6 -5 -2 -3 2 3 1 1 1 0 -1 -2 -2 -1 -1 -2 -1 -1 -2 -2 -2 -2 -2 -1 -0 -0 -1 -2 -1 -1 -1 -1 -1 -1
1 2 1 0 -0 -1 -1 -1 -2 -8 -9 -6 -4 -4 3 3 2 1 0 -0 -1 -2 -1 -1 -1 -2 -2 -3 -3 -3 -3 -3 -3 -2 -1 -0 -1 -2 -1 -1 -1 -2 -1 -1
0 0 0 -0 0 -1 -2 -2 -2 -3 -5 -6 -4 -1 1 3 1 0 -0 -1 -2 -2 -1 -1 -1 -3 -3 -2 -4 -3 -3 -4 -3 -2 -2 -1 -1 -2 -2 -2 -2 -2 -2 -2
-1 -1 -1 -1 -1 -1 -2 -3 -3 -4 -7 -9 -5 -3 -1 2 1 0 -1 -2 -2 -2 -1 -2 -2 -3 -2 -3 -4 -4 -4 -4 -3 -3 -3 -4 -3 -4 -3 -2 -2 -4 -2 -2
-2 -2 -2 -2 -2 -1 -2 -3 -3 -4 -4 -10 -8 -4 -1 1 0 0 -1 -2 -2 -2 -2 -2 -3 -4 -3 -4 -4 -4 -5 -4 -4 -4 -3 -4 -4 -3 -3 -4 -4 -4 -4 -3
-2 -3 -3 -3 -3 -3 -3 -4 -4 -4 -5 -5 -7 -5 -1 -0 -0 -1 -1 -1 -2 -2 -3 -3 -3 -4 -4 -4 -4 -3 -4 -4 -4 -4 -4 -3 -4 -4 -4 -4 -4 -4 -4 -4
-3 -4 -4 -4 -3 -3 -3 -4 -4 -4 -4 -5 -6 -4 -1 0 -1 -1 -1 -2 -2 -3 -5 -4 -4 -4 -5 -4 -4 -4 -4 -4 -4 -4 -4 -4 -4 -4 -4 -4 -4 -5 -5 -5
-5 -5 -5 -4 -3 -3 -4 -4 -4 -4 -5 -5 -5 -4 -1 -0 -2 -1 -1 -2 -2 -3 -3 -3 -4 -4 -4 -4 -4 -4 -4 -4 -5 -4 -4 -4 -4 -4 -5 -4 -4 -4 -4 -4
-5 -5 -5 -5 -5 -5 -5 -5 -5 -5 -4 -6 -3 -5 -1 -2 -2 -2 -2 -2 -3 -3 -3 -3 -3 -4 -3 -4 -4 -4 -4 -4 -5 -4 -4 -4 -5 -4 -5 -5 -4 -4 -4 -4
-5 -5 -6 -6 -5 -5 -5 -5 -4 -4 -4 -4 -3 -3 -2 -2 -2 -2 -2 -2 -3 -4 -4 -4 -4 -5 -5 -4 -4 -3 -4 -4 -5 -4 -4 -4 -5 -4 -4 -5 -5 -4 -4 -4
-7 -6 -7 -7 -7 -6 -6 -3 -3 -4 -4 -4 -4 -2 -3 -2 -2 -2 -2 -2 -4 -3 -3 -4 -4 -3 -4 -4 -3 -2 -3 -4 -4 -4 -4 -5 -4 -4 -5 -5 -4 -4 -4 -4
-7 -6 -7 -8 -7 -8 -4 -4 -4 -4 -3 -4 -3 -3 -3 -3 -2 -2 -2 -2 -3 -2 -3 -4 -5 -4 -4 -4 -3 -3 -2 -3 -5 -4 -4 -4 -5 -4 -6 -5 -5 -4 -5 -5
-6 -7 -8 -8 -7 -6 -5 -3 -4 -4 -3 -3 -4 -3 -3 -3 -2 -2 -2 -3 -3 -2 -3 -4 -4 -4 -5 -4 -4 -5 -5 -5 -5 -4 -4 -4 -4 -5 -4 -4 -5 -5 -5 -6
-6 -7 -9 -8 -8 -8 -4 -4 -4 -4 -4 -3 -3 -3 -3 -3 -3 -3 -3 -3 -3 -3 -3 -4 -4 -4 -4 -5 -5 -5 -5 -6 -6 -6 -5 -5 -5 -5 -6 -6 -6 -6 -6 -6
-7 -7 -8 -9 -9 -7 -6 -4 -5 -6 -4 -3 -3 -3 -3 -3 -4 -3 -3 -3 -3 -3 -3 -4 -5 -5 -5 -5 -5 -5 -6 -6 -6 -6 -6 -7 -6 -6 -7 -7 -7 -7 -7 -8
-8 -7 -8 -9 -8 -8 -6 -5 -6 -5 -4 -4 -3 -3 -4 -3 -3 -3 -3 -3 -3 -3 -3 -4 -5 -5 -5 -5 -4 -5 -5 -6 -6 -7 -7 -7 -6 -7 -7 -6 -6 -7 -7 -8
-9 -8 -8 -8 -7 -6 -6 -6 -5 -6 -5 -5 -5 -4 -4 -3 -3 -2 -3 -3 -3 -3 -3 -4 -5 -5 -6 -6 -5 -5 -5 -6 -6 -6 -6 -7 -7 -7 -6 -7 -7 -8 -9 -8
-10 -9 -9 -9 -8 -8 -7 -6 -6 -6 -6 -5 -5 -4 -3 -3 -2 -2 -3 -3 -3 -3 -3 -3 -4 -5 -5 -5 -5 -5 -5 -5 -6 -6 -6 -6 -6 -6 -7 -9 -10 -9 -9 -8
-11 -10 -10 -9 -8 -7 -6 -6 -6 -6 -6 -5 -5 -4 -3 -2 -2 -2 -3 -3 -3 -3 -3 -3 -4 -4 -4 -5 -5 -5 -5 -5 -5 -6 -6 -6 -6 -6 -6 -7 -8 -7 -7 -8
-11 -10 -9 -9 -7 -8 -7 -6 -7 -6 -6 -5 -5 -3 -3 -3 -2 -3 -3 -3 -3 -3 -4 -4 -3 -4 -4 -4 -5 -5 -5 -5 -5 -6 -6 -6 -6 -7 -8 -7 -7 -7 -7 -8

GFSCGP_700_temp_195.txt.gz
Temp
5 5 5 5 5 5 5 4 4 4 4 4 5 7 7 6 5 5 4 3 2 2 2 1 1 1 1 1 1 1 0 -0 -1 -0 -0 -0 -0 0 1 1 1 1 2 2
5 5 5 5 5 4 4 4 3 3 3 3 5 6 6 5 4 4 3 2 2 2 1 1 1 0 -0 -1 -1 -1 -0 -0 -0 -1 -1 -1 -0 -0 -0 0 1 2 2 2
4 4 4 4 4 4 3 3 2 2 3 3 4 5 6 4 4 3 3 2 2 1 1 0 -0 -1 -1 -1 -0 -0 -1 -1 -1 -1 -1 -1 -1 -0 -0 -0 0 1 1 1
3 4 4 4 3 3 2 2 2 2 1 0 2 0 5 4 3 2 2 2 1 1 0 -0 -1 -1 -0 -1 -1 -1 -0 -1 -1 -1 -1 -1 -1 -1 -1 -1 -0 -0 0 1
3 3 3 3 2 2 2 1 1 1 1 0 0 -2 5 4 3 2 2 1 1 0 -0 -1 -1 -1 -1 -1 -1 -1 -0 -0 -1 -1 -0 -0 -1 -2 -1 -1 -1 -1 -0 -0
2 2 2 2 2 1 0 1 1 1 -1 -4 -1 -1 3 3 2 2 1 0 0 -1 -2 -2 -1 -1 -1 -1 -1 -1 -1 -2 -2 -1 -1 -1 -0 -2 -2 -2 -1 -1 -1 -1
2 2 2 1 0 0 0 1 -0 -4 -5 -3 -2 -3 4 3 2 1 1 0 -1 -2 -2 -2 -1 -1 -1 -1 -1 -1 -1 -1 -2 -2 -2 -2 -2 -2 -2 -2 -2 -1 -1 -1
1 1 1 0 -0 -0 -0 -0 -1 -6 -6 -4 -3 -3 3 3 2 0 -0 -1 -2 -2 -2 -1 -1 -2 -2 -1 -2 -2 -2 -2 -3 -3 -2 -2 -2 -3 -2 -2 -2 -2 -1 -2
0 -0 -0 -1 -0 -0 -1 -2 -2 -2 -5 -6 -4 -1 1 2 1 -0 -1 -1 -1 -1 -1 -1 -2 -3 -3 -2 -2 -2 -2 -2 -3 -3 -3 -3 -3 -3 -3 -2 -1 -2 -2 -2
-0 -1 -1 -1 -1 -1 -1 -2 -2 -3 -7 -7 -5 -4 0 1 -0 -0 -1 -2 -1 -1 -1 -2 -3 -3 -4 -3 -3 -2 -2 -2 -3 -3 -3 -4 -4 -4 -4 -3 -3 -3 -2 -2
-2 -2 -2 -2 -2 -1 -2 -3 -3 -4 -4 -7 -7 -4 -1 0 -0 -1 -2 -2 -1 -2 -2 -2 -1 -2 -4 -4 -3 -3 -2 -3 -3 -3 -4 -4 -4 -5 -5 -4 -4 -3 -3 -3
-2 -3 -3 -2 -3 -3 -3 -3 -3 -4 -5 -5 -7 -5 -2 -0 -1 -2 -2 -2 -2 -2 -2 -2 -2 -3 -3 -4 -4 -4 -4 -4 -3 -3 -4 -4 -3 -4 -4 -3 -4 -4 -3 -4
-3 -4 -4 -4 -4 -3 -4 -3 -4 -4 -4 -5 -6 -4 -2 -1 -3 -2 -2 -2 -2 -2 -2 -3 -3 -2 -2 -3 -3 -3 -3 -4 -4 -4 -4 -4 -4 -4 -4 -4 -4 -4 -4 -4
-5 -4 -4 -3 -3 -4 -4 -4 -4 -4 -5 -4 -5 -4 -3 -3 -4 -3 -2 -2 -2 -3 -4 -3 -4 -4 -3 -3 -3 -3 -4 -3 -4 -5 -5 -5 -4 -4 -4 -4 -4 -4 -4 -4
-6 -5 -5 -5 -5 -5 -4 -4 -4 -4 -4 -6 -5 -5 -3 -4 -4 -3 -3 -2 -2 -2 -3 -3 -5 -4 -4 -3 -3 -4 -3 -3 -4 -5 -5 -5 -5 -4 -4 -4 -4 -5 -4 -4
-5 -6 -6 -6 -5 -5 -5 -5 -4 -3 -5 -6 -5 -5 -4 -4 -4 -3 -3 -2 -2 -3 -3 -3 -4 -4 -5 -4 -3 -3 -3 -3 -4 -4 -5 -5 -4 -5 -4 -5 -4 -4 -4 -4
-7 -7 -7 -7 -6 -6 -7 -4 -3 -4 -5 -5 -5 -4 -5 -4 -3 -3 -2 -2 -3 -3 -3 -3 -4 -5 -4 -5 -4 -4 -3 -4 -4 -4 -4 -5 -4 -5 -4 -5 -4 -4 -4 -4
-7 -7 -8 -8 -8 -8 -5 -5 -5 -5 -5 -4 -4 -5 -5 -5 -3 -3 -3 -3 -3 -3 -3 -3 -5 -4 -5 -5 -4 -4 -4 -3 -4 -4 -5 -5 -5 -5 -5 -5 -5 -6 -5 -5
-7 -8 -9 -8 -8 -6 -5 -3 -4 -4 -4 -4 -5 -5 -4 -4 -3 -2 -3 -3 -3 -4 -3 -4 -5 -5 -5 -5 -6 -4 -4 -4 -5 -5 -5 -5 -5 -5 -4 -5 -5 -6 -5 -5
-8 -9 -10 -9 -9 -9 -5 -5 -5 -5 -4 -4 -4 -5 -4 -3 -3 -3 -3 -3 -3 -4 -3 -4 -5 -5 -5 -6 -6 -4 -5 -6 -6 -5 -5 -5 -5 -5 -5 -5 -5 -6 -6 -6
-8 -9 -9 -9 -9 -8 -5 -5 -5 -6 -5 -5 -5 -5 -4 -4 -4 -4 -3 -3 -3 -4 -4 -4 -5 -5 -6 -6 -5 -5 -5 -5 -5 -5 -5 -5 -5 -6 -6 -6 -6 -6 -7 -7
-8 -8 -9 -9 -9 -8 -6 -6 -6 -6 -6 -6 -6 -6 -5 -4 -4 -3 -3 -3 -3 -4 -3 -4 -5 -5 -6 -5 -5 -5 -5 -5 -5 -5 -6 -7 -7 -7 -7 -7 -7 -7 -7 -7
-10 -9 -8 -8 -7 -7 -7 -7 -6 -7 -7 -6 -6 -6 -5 -4 -4 -3 -3 -3 -3 -4 -3 -4 -5 -5 -6 -5 -5 -6 -6 -6 -6 -5 -6 -7 -7 -7 -7 -7 -7 -7 -8 -9
-11 -10 -9 -9 -9 -9 -8 -8 -7 -7 -6 -7 -7 -6 -5 -5 -4 -3 -3 -3 -3 -4 -4 -4 -5 -5 -5 -5 -6 -6 -6 -6 -6 -6 -6 -7 -7 -7 -7 -7 -8 -8 -9 -10
-12 -11 -11 -10 -10 -9 -8 -7 -7 -7 -7 -7 -6 -6 -5 -5 -4 -3 -3 -3 -3 -3 -4 -4 -4 -5 -5 -5 -5 -5 -5 -5 -6 -6 -6 -6 -7 -7 -7 -9 -10 -10 -10 -9
-13 -12 -11 -10 -9 -10 -9 -7 -7 -7 -7 -6 -6 -5 -5 -5 -4 -3 -3 -3 -3 -4 -4 -4 -4 -4 -5 -5 -5 -5 -5 -6 -6 -6 -6 -7 -7 -6 -7 -7 -8 -8 -8 -8

GFSCGP_700_temp_198.txt.gz
Temp
5 5 5 5 5 5 5 5 5 4 5 5 5 6 7 6 5 5 4 4 3 2 2 1 1 1 1 0 0 0 0 0 0 0 0 0 0 0 0 0 1 1 1 2
4 4 5 5 5 5 5 4 4 4 4 4 5 6 7 5 5 4 3 3 2 2 2 1 1 0 0 -0 -0 -0 0 -0 -0 -0 -0 -0 -0 0 0 -0 -0 0 1 1
4 4 4 4 4 4 4 4 4 3 3 4 4 5 6 5 4 3 3 2 2 1 1 1 0 -0 -0 0 0 0 0 0 0 1 1 0 -1 -1 -1 -0 -0 -0 -0 0
3 4 3 4 3 3 3 3 3 2 2 1 3 3 5 4 3 2 2 2 1 1 0 -0 -0 -0 -0 -0 -0 0 -0 -0 0 0 1 1 1 0 -0 -1 -2 -1 -1 -0
3 3 3 3 3 3 3 2 2 2 2 0 1 -1 4 4 2 1 1 1 0 -0 -1 -1 -0 -0 0 -0 -0 -0 -0 -0 -0 -0 0 0 -0 -0 -1 -1 -2 -2 -1 -1
2 2 2 2 2 2 2 1 1 1 0 -1 -1 -1 3 3 2 1 0 -0 -0 -1 -0 0 0 0 -0 -0 -1 -1 -1 -1 -1 -0 0 -0 -1 -1 -1 -1 -2 -2 -1 -1
0 1 1 1 1 1 0 1 0 0 -0 3 -1 -2 3 2 1 1 0 -1 -1 -1 -0 -0 -0 -0 -0 -1 -2 -2 -2 -2 -1 -1 -1 -1 -2 -2 -2 -2 -2 -2 -2 -1
1 -0 0 1 0 0 0 0 1 1 2 3 -2 -1 2 1 1 0 -0 -1 -1 -1 -0 -0 0 -0 -1 -1 -1 -1 -2 -1 -2 -2 -2 -2 -2 -2 -2 -2 -3 -3 -2 -2
0 -0 -1 -0 -0 -0 -1 -1 -0 -1 -3 -3 -0 -1 2 2 1 -1 -1 -1 -0 -0 -0 -0 0 -0 -0 -1 -1 -1 -1 -1 -1 -1 -2 -3 -3 -3 -3 -3 -3 -3 -3 -3
-0 -1 -1 -1 -1 -1 -1 -1 -2 -2 -1 -1 1 -2 1 1 0 -1 -1 -1 -0 -0 -1 -1 -0 -0 -1 -1 -1 -1 -1 -2 -3 -2 -2 -3 -3 -3 -4 -5 -4 -4 -3 -3
-1 -1 -2 -2 -2 -1 -2 -2 -2 -3 -3 -1 -1 1 1 -0 -1 -2 -3 -2 -1 -1 -1 -1 -1 -1 -1 -2 -2 -1 -2 -3 -3 -3 -3 -3 -3 -3 -5 -5 -4 -4 -4 -3
-3 -3 -2 -2 -2 -2 -2 -2 -3 -3 -3 -5 -5 -3 -1 -1 -1 -3 -3 -2 -1 -1 -1 -1 -1 -1 -2 -3 -3 -3 -3 -3 -3 -4 -4 -4 -3 -3 -4 -5 -5 -5 -4 -3
-3 -4 -3 -3 -3 -3 -3 -3 -4 -4 -4 -3 -3 -1 -2 -3 -3 -3 -3 -3 -2 -2 -1 -1 -1 -2 -4 -4 -4 -3 -4 -3 -3 -4 -5 -3 -3 -4 -4 -4 -4 -3 -4 -5
-5 -4 -3 -1 -3 -3 -4 -4 -4 -5 -4 -3 -3 -3 -3 -4 -4 -4 -3 -2 -2 -2 -2 -1 -1 -2 -4 -5 -5 -4 -3 -3 -3 -5 -5 -4 -4 -4 -4 -4 -4 -4 -5 -4
-6 -5 -5 -5 -4 -4 -4 -4 -4 -5 -4 -4 -4 -4 -4 -5 -5 -4 -4 -3 -3 -2 -2 -2 -2 -3 -5 -5 -4 -3 -3 -3 -3 -5 -5 -4 -4 -4 -4 -4 -4 -4 -5 -4
-6 -6 -6 -6 -5 -5 -6 -5 -4 -4 -4 -5 -5 -5 -5 -5 -5 -4 -3 -3 -2 -2 -2 -2 -2 -4 -5 -5 -5 -4 -4 -4 -4 -4 -4 -4 -4 -4 -4 -4 -4 -4 -5 -5
-7 -7 -7 -6 -6 -6 -6 -4 -3 -4 -6 -6 -6 -4 -5 -5 -4 -4 -3 -3 -3 -2 -2 -4 -3 -4 -5 -5 -5 -4 -4 -5 -5 -4 -4 -4 -4 -4 -5 -5 -4 -4 -4 -4
-7 -7 -8 -7 -7 -6 -4 -4 -5 -5 -5 -5 -4 -4 -6 -6 -4 -4 -3 -3 -3 -3 -3 -4 -3 -4 -5 -5 -5 -5 -5 -5 -5 -4 -5 -5 -5 -4 -5 -6 -5 -5 -4 -4
-8 -8 -8 -8 -7 -6 -5 -4 -5 -4 -5 -5 -5 -6 -6 -6 -4 -4 -4 -3 -3 -3 -3 -4 -4 -4 -5 -4 -4 -5 -5 -5 -5 -5 -5 -5 -5 -5 -5 -5 -5 -5 -5 -5
-8 -9 -9 -9 -8 -6 -5 -6 -6 -5 -5 -5 -6 -6 -6 -5 -4 -3 -3 -3 -3 -3 -4 -4 -4 -4 -4 -4 -4 -5 -5 -5 -5 -5 -5 -5 -6 -5 -6 -5 -6 -6 -5 -5
-8 -10 -10 -9 -8 -8 -6 -6 -6 -6 -6 -6 -6 -6 -6 -6 -6 -5 -4 -3 -4 -3 -4 -4 -4 -5 -4 -4 -4 -5 -6 -6 -6 -5 -5 -5 -5 -5 -5 -5 -5 -6 -5 -6
-9 -9 -9 -9 -9 -8 -7 -6 -7 -6 -6 -6 -6 -6 -6 -6 -5 -5 -4 -4 -4 -4 -4 -4 -4 -5 -5 -5 -4 -5 -6 -6 -6 -6 -6 -5 -5 -5 -6 -6 -6 -6 -6 -7
-10 -9 -9 -9 -8 -7 -7 -8 -7 -7 -6 -6 -7 -6 -6 -6 -6 -5 -4 -4 -4 -4 -4 -4 -4 -5 -5 -5 -5 -5 -6 -6 -5 -6 -5 -6 -6 -6 -7 -7 -7 -7 -7 -7
-11 -10 -10 -10 -9 -9 -8 -7 -7 -7 -7 -7 -7 -7 -7 -6 -6 -5 -4 -4 -4 -4 -4 -4 -4 -5 -5 -5 -5 -5 -6 -6 -6 -6 -6 -6 -7 -7 -7 -7 -7 -7 -8 -8
-12 -12 -11 -11 -11 -10 -9 -9 -8 -8 -8 -8 -7 -7 -7 -6 -6 -6 -4 -4 -4 -4 -4 -4 -4 -4 -5 -5 -5 -6 -6 -6 -6 -6 -7 -7 -7 -7 -7 -7 -8 -8 -9 -9
-14 -14 -13 -12 -10 -10 -10 -9 -9 -9 -9 -8 -8 -7 -6 -6 -6 -5 -5 -4 -4 -4 -4 -4 -4 -4 -5 -5 -5 -6 -6 -6 -6 -7 -7 -7 -7 -7 -7 -8 -7 -8 -8 -8

GFSCGP_700_temp_201.txt.gz
Temp
4 5 5 5 5 5 5 5 4 3 5 5 6 7 6 7 6 5 5 4 4 3 3 2 2 2 2 1 1 1 1 1 1 1 1 1 1 1 1 1 0 1 2 1
4 4 4 5 5 5 5 4 3 4 4 4 5 6 7 6 5 5 4 3 3 3 2 2 1 1 1 1 2 1 1 1 1 1 1 1 1 1 0 1 1 -0 0 1
3 3 4 4 4 4 4 3 3 3 4 4 4 6 6 5 4 4 3 3 3 2 1 1 1 1 1 1 1 1 1 1 1 1 1 1 1 1 1 0 0 0 -1 -0
2 3 3 3 4 4 3 4 4 3 2 2 3 4 5 4 3 3 3 2 1 1 1 1 1 1 1 1 1 1 1 1 1 0 0 0 0 0 1 1 -0 0 -1 -1
1 3 3 2 2 3 2 3 3 2 2 1 1 1 5 4 2 1 1 1 1 0 0 1 1 1 1 1 1 1 1 0 -1 -1 -0 -0 -0 0 1 1 -1 -1 -0 -1
-0 1 1 -1 2 2 2 2 2 2 0 -0 1 2 5 3 3 0 -0 -1 -1 -0 0 1 1 1 1 1 1 1 1 1 -0 -2 -1 -1 -0 1 1 0 -1 -2 -2 -1
-1 -0 0 0 1 1 1 -0 1 0 -1 3 -0 -0 4 2 2 1 -0 -0 0 1 1 1 1 1 1 1 1 1 1 1 0 -1 -0 -0 -1 -1 -0 -1 -2 -2 -3 -2
-1 -1 0 0 -0 -0 -0 -0 1 2 3 4 -0 1 3 1 1 0 -0 -1 -0 0 0 0 0 1 1 1 1 0 0 0 -1 -1 -2 -1 -2 -2 -2 -2 -2 -2 -2 -3
-1 -1 -1 -0 -0 -1 -1 -1 0 -1 -0 -0 2 1 2 1 0 -1 -1 -0 0 -0 -0 0 0 0 0 0 0 -0 -0 -1 -1 -3 -2 -1 -2 -2 -3 -2 -2 -2 -3 -3
-1 -1 -2 -1 -1 -1 -1 -1 -1 -1 -1 1 4 2 2 1 -1 -1 -1 -0 -1 -1 -0 -0 0 0 0 -0 0 -0 -2 -2 -2 -3 -3 -4 -4 -3 -3 -2 -3 -3 -3 -3
-2 -2 -3 -2 -2 -1 -1 -2 -1 -1 -1 -0 2 3 1 0 -0 -1 -3 -1 -1 -1 -1 -1 -0 -0 -0 -0 -0 -1 -3 -3 -2 -3 -3 -4 -4 -4 -3 -3 -3 -5 -4 -4
-3 -2 -1 -2 -2 -1 -2 -2 -2 -1 -1 -2 -3 -0 0 1 -1 -2 -2 -2 -2 -1 -2 -1 -1 -1 -1 -1 -3 -4 -3 -3 -3 -2 -3 -4 -4 -4 -3 -3 -4 -5 -5 -4
-3 -3 -2 -2 -2 -2 -2 -2 -2 -2 -2 -2 -2 1 -1 -1 -2 -3 -3 -3 -2 -2 -2 -1 -1 -1 -1 -2 -3 -4 -3 -2 -3 -3 -4 -4 -5 -4 -3 -4 -4 -5 -4 -4
-3 -4 -3 -1 -3 -3 -3 -3 -4 -3 -3 -2 -1 -1 -0 -1 -2 -4 -3 -3 -3 -2 -2 -2 -1 -1 -2 -2 -4 -4 -4 -3 -3 -3 -3 -4 -4 -5 -4 -4 -4 -4 -5 -4
-5 -5 -4 -4 -4 -5 -4 -4 -4 -4 -4 -3 -2 -2 -2 -3 -4 -4 -4 -4 -3 -2 -2 -2 -2 -1 -2 -4 -5 -4 -4 -4 -4 -4 -4 -5 -5 -4 -4 -4 -4 -4 -4 -5
-6 -6 -5 -5 -5 -5 -5 -5 -4 -4 -4 -4 -3 -3 -3 -4 -5 -5 -4 -4 -3 -2 -2 -2 -2 -2 -3 -5 -5 -4 -4 -4 -5 -5 -5 -5 -6 -5 -4 -4 -4 -4 -5 -5
-7 -7 -6 -6 -5 -6 -5 -5 -4 -5 -4 -4 -4 -4 -4 -6 -5 -5 -4 -4 -3 -3 -3 -3 -3 -3 -4 -5 -4 -4 -4 -5 -5 -5 -5 -5 -5 -5 -4 -5 -4 -5 -5 -4
-7 -7 -7 -6 -6 -5 -4 -4 -4 -4 -4 -5 -5 -5 -6 -6 -5 -5 -5 -4 -3 -3 -3 -3 -4 -3 -4 -5 -5 -4 -5 -5 -5 -5 -5 -5 -5 -5 -5 -5 -4 -4 -4 -4
-8 -8 -8 -7 -6 -5 -5 -4 -5 -5 -5 -5 -5 -6 -7 -7 -5 -6 -5 -4 -3 -3 -3 -3 -5 -4 -5 -5 -5 -5 -5 -5 -5 -5 -5 -6 -5 -5 -5 -5 -5 -5 -5 -4
-8 -9 -8 -8 -7 -5 -5 -5 -5 -5 -5 -6 -6 -7 -6 -6 -6 -5 -5 -4 -4 -3 -3 -4 -4 -4 -5 -5 -5 -5 -5 -5 -5 -5 -5 -5 -6 -6 -5 -6 -6 -5 -5 -5
-8 -10 -9 -9 -7 -7 -6 -6 -6 -6 -6 -6 -6 -7 -6 -6 -7 -6 -5 -5 -4 -4 -3 -4 -4 -5 -5 -5 -5 -5 -5 -5 -5 -6 -5 -6 -7 -6 -5 -5 -5 -6 -6 -5
-8 -8 -8 -9 -8 -7 -7 -7 -7 -6 -7 -7 -7 -7 -7 -7 -7 -6 -6 -5 -4 -3 -4 -4 -5 -4 -5 -5 -5 -5 -5 -6 -6 -6 -6 -6 -6 -6 -6 -6 -6 -6 -6 -6
-10 -9 -8 -7 -7 -7 -7 -7 -8 -7 -7 -8 -7 -7 -7 -7 -6 -6 -6 -5 -4 -4 -4 -5 -5 -4 -5 -5 -5 -5 -5 -5 -6 -6 -6 -6 -6 -5 -6 -7 -6 -6 -6 -7
-11 -10 -11 -10 -9 -8 -8 -9 -8 -8 -8 -8 -8 -7 -7 -7 -7 -6 -6 -5 -5 -4 -4 -5 -4 -4 -4 -5 -5 -5 -5 -6 -6 -6 -6 -6 -6 -6 -6 -7 -7 -7 -7 -7
-13 -12 -11 -11 -11 -11 -10 -8 -7 -7 -8 -8 -8 -7 -7 -7 -7 -7 -6 -5 -5 -4 -5 -5 -4 -4 -5 -5 -5 -5 -5 -6 -6 -6 -6 -6 -6 -6 -7 -7 -7 -7 -7 -8
-14 -13 -13 -13 -11 -10 -9 -9 -10 -10 -9 -8 -8 -8 -7 -7 -7 -7 -6 -6 -5 -5 -4 -4 -4 -4 -5 -5 -5 -5 -5 -6 -6 -7 -7 -7 -7 -7 -7 -7 -7 -8 -8 -9

GFSCGP_700_temp_204.txt.gz
Temp
4 4 5 5 5 5 5 5 5 4 5 5 6 6 5 6 6 5 4 3 4 4 3 3 3 3 3 3 3 3 2 2 2 2 2 2 2 2 2 2 2 1 1 2
3 4 4 4 4 4 4 5 5 4 5 5 5 7 6 6 5 4 3 2 3 3 3 2 2 2 2 2 2 2 2 2 2 2 2 2 2 1 1 1 1 2 1 0
2 2 4 3 4 3 4 4 3 3 4 4 5 6 6 5 5 4 4 3 3 2 2 2 2 2 2 2 2 2 2 2 2 2 2 1 1 1 1 1 1 1 1 0
2 2 3 3 3 3 3 2 3 3 3 2 3 1 5 5 4 4 3 2 2 2 2 1 1 1 1 2 1 1 2 2 2 2 2 2 1 0 0 0 0 0 0 0
1 2 2 2 2 2 2 2 3 2 2 2 3 2 4 4 3 2 2 2 1 2 1 1 1 1 2 2 1 1 1 2 2 2 2 2 2 1 1 1 1 1 1 1
0 0 1 0 0 1 2 1 1 1 1 -2 3 2 3 3 3 2 1 -1 0 0 0 1 1 1 1 1 1 1 1 2 1 1 1 1 1 1 0 0 0 1 0 -0
-2 -1 -0 0 0 -0 0 -0 -1 -3 -4 -3 1 1 3 3 3 1 -0 -0 -0 -1 0 1 1 1 1 1 1 1 1 1 1 1 1 0 0 -0 -0 -0 -0 -0 -1 -1
-2 -2 -1 -1 -0 -0 0 -0 0 -5 -4 -3 -0 0 2 2 2 2 -0 -1 -1 -0 1 1 -0 0 0 1 1 1 1 1 0 -1 -2 -2 -1 -1 -1 -1 -1 -1 -1 -2
-1 -1 -1 -1 -1 -1 -2 -1 0 0 1 -1 2 1 0 1 1 1 -1 -0 -0 -0 0 -0 -1 -0 0 0 1 1 1 0 -0 -3 -3 -3 -3 -2 -2 -3 -2 -2 -2 -2
-2 -1 -1 -2 -2 -1 -1 -1 -1 -1 -3 -2 1 2 2 1 0 -1 -2 -0 -0 -0 0 -1 -1 -0 -0 -0 -0 0 -0 -1 -2 -3 -4 -3 -2 -3 -2 -2 -3 -3 -3 -3
-2 -2 -3 -2 -2 -2 -2 -1 -1 -1 -1 -6 -4 1 2 2 0 -2 -2 -1 -1 -1 -1 -1 -1 -1 -1 -0 -0 -0 -2 -2 -3 -3 -4 -3 -3 -3 -3 -3 -3 -3 -3 -2
-3 -2 -2 -1 -2 -2 -2 -2 -1 -1 -2 -2 -3 -2 0 0 -1 -2 -1 -1 -1 -1 -2 -2 -2 -1 -0 -1 -1 -1 -3 -3 -3 -4 -3 -3 -3 -3 -4 -3 -3 -3 -3 -4
-3 -3 -2 -2 -2 -2 -2 -2 -1 -2 -2 -2 -4 -1 -1 -0 -0 -2 -2 -2 -2 -3 -3 -2 -2 -1 -1 -1 -1 -3 -3 -3 -3 -3 -3 -2 -2 -4 -5 -5 -5 -4 -4 -4
-4 -4 -3 -3 -3 -3 -3 -3 -3 -3 -3 -3 -2 -1 -1 -1 -2 -3 -2 -2 -3 -3 -3 -2 -2 -2 -1 -2 -2 -3 -3 -3 -3 -3 -3 -3 -4 -5 -4 -4 -5 -4 -4 -4
-5 -5 -4 -4 -3 -3 -3 -3 -4 -4 -3 -4 -3 -3 -2 -2 -3 -3 -3 -3 -3 -3 -3 -2 -2 -2 -2 -2 -3 -3 -3 -3 -3 -4 -4 -5 -6 -6 -4 -4 -4 -4 -4 -4
-6 -6 -6 -5 -4 -4 -4 -4 -4 -4 -3 -4 -4 -4 -3 -4 -4 -4 -4 -4 -4 -4 -3 -3 -2 -3 -3 -3 -3 -3 -3 -4 -4 -5 -5 -5 -5 -5 -5 -5 -4 -5 -5 -4
-7 -7 -6 -6 -5 -5 -6 -5 -3 -3 -3 -4 -5 -4 -4 -4 -4 -4 -5 -4 -4 -4 -4 -3 -3 -3 -3 -3 -4 -4 -4 -4 -5 -5 -5 -5 -5 -5 -5 -5 -5 -5 -4 -5
-7 -7 -7 -7 -6 -7 -5 -4 -4 -4 -4 -4 -4 -4 -5 -5 -5 -5 -5 -5 -4 -4 -4 -4 -3 -4 -4 -4 -4 -5 -5 -5 -5 -5 -5 -6 -6 -5 -6 -5 -5 -5 -5 -4
-7 -8 -8 -7 -7 -6 -4 -4 -4 -5 -4 -5 -4 -5 -5 -5 -5 -5 -6 -6 -5 -5 -4 -4 -4 -5 -4 -5 -5 -5 -5 -5 -5 -5 -5 -5 -6 -6 -6 -6 -5 -6 -5 -5
-9 -9 -9 -8 -8 -6 -5 -5 -5 -5 -6 -6 -5 -6 -6 -6 -6 -6 -6 -5 -5 -5 -4 -4 -4 -5 -4 -5 -5 -5 -5 -5 -5 -5 -5 -5 -5 -5 -6 -7 -6 -6 -5 -5
-8 -9 -9 -9 -8 -7 -6 -6 -6 -6 -7 -7 -7 -6 -7 -7 -7 -6 -6 -5 -5 -5 -5 -4 -4 -5 -5 -5 -5 -5 -5 -5 -6 -6 -5 -5 -6 -6 -7 -6 -7 -6 -5 -5
-8 -9 -9 -9 -9 -9 -7 -7 -7 -7 -8 -7 -8 -8 -7 -7 -7 -6 -6 -6 -5 -5 -5 -5 -4 -5 -5 -5 -5 -5 -5 -6 -6 -6 -6 -6 -6 -7 -7 -6 -6 -6 -6 -6
-10 -9 -9 -9 -9 -9 -9 -9 -8 -8 -8 -8 -8 -9 -8 -7 -7 -7 -6 -6 -5 -5 -5 -5 -5 -5 -5 -5 -5 -5 -6 -6 -6 -6 -6 -6 -6 -7 -7 -6 -6 -6 -6 -6
-11 -11 -11 -11 -9 -9 -10 -10 -10 -9 -8 -9 -10 -9 -7 -8 -8 -7 -6 -6 -6 -6 -5 -5 -5 -5 -5 -5 -5 -5 -5 -6 -6 -6 -6 -6 -6 -6 -6 -6 -6 -6 -6 -6
-13 -12 -11 -11 -11 -9 -8 -9 -9 -8 -9 -9 -9 -9 -9 -9 -8 -7 -7 -6 -6 -6 -5 -5 -5 -5 -5 -5 -5 -5 -6 -5 -6 -6 -6 -6 -6 -7 -7 -7 -7 -7 -7 -7
-14 -13 -13 -12 -11 -12 -12 -11 -10 -9 -9 -9 -10 -9 -9 -9 -8 -7 -7 -6 -6 -6 -5 -5 -5 -5 -5 -5 -6 -6 -6 -6 -6 -6 -6 -6 -6 -7 -7 -7 -7 -7 -8 -8

GFSCGP_700_temp_207.txt.gz
Temp
3 3 4 5 4 5 5 4 4 5 5 5 5 6 6 5 5 6 5 5 4 4 4 4 3 3 3 3 3 2 3 2 3 3 3 3 3 3 2 2 2 2 1 1
2 3 3 4 4 4 4 4 4 4 4 4 5 6 6 6 6 5 4 4 4 4 3 3 3 2 2 2 2 2 3 2 2 2 2 3 3 3 2 1 1 2 1 1
2 2 2 3 3 3 3 4 4 4 4 4 4 5 6 5 4 4 3 2 2 3 3 3 2 2 2 2 2 2 2 2 2 2 2 3 3 3 3 2 1 1 1 1
2 2 2 2 2 2 2 3 3 3 3 3 3 1 5 4 3 3 2 2 2 2 2 1 1 1 1 1 2 2 2 1 2 2 2 2 2 3 2 2 2 1 0 0
1 1 1 1 2 2 2 2 2 2 2 2 2 2 4 3 3 2 2 2 3 2 1 1 0 1 1 2 2 2 1 1 2 2 2 2 2 2 2 2 2 2 1 1
-0 0 0 0 1 0 1 1 1 1 1 -3 3 3 3 2 2 2 1 2 2 1 1 0 0 1 1 1 1 1 1 1 2 2 2 2 2 1 1 1 1 1 0 -0
-1 -1 -1 -1 -0 -1 -1 0 -2 -4 -6 -5 2 0 2 2 2 2 2 2 2 1 0 -0 1 1 1 1 1 1 1 1 2 2 2 2 1 0 -1 -0 0 0 0 -0
-2 -1 -1 -1 -1 -1 -0 -0 0 -6 -6 -4 -0 0 2 1 2 1 1 1 0 -0 -1 -0 0 1 1 0 0 1 1 1 1 1 1 1 -0 -2 -2 -2 -1 -1 -0 -0
-2 -2 -1 -2 -2 -2 -2 -2 -1 -0 -1 -2 0 -0 -0 0 1 1 0 0 -0 -1 -1 -0 0 0 -0 -0 0 0 1 1 1 0 -0 -1 -3 -3 -3 -2 -2 -2 -2 -1
-3 -2 -2 -2 -2 -2 -2 -1 -1 -1 -6 -5 -2 -0 2 1 1 0 -0 -0 -0 -1 -1 -0 -0 -0 -1 -1 -0 -0 1 1 0 -1 -2 -2 -3 -3 -3 -3 -2 -2 -2 -2
-3 -3 -3 -3 -2 -1 -2 -2 -1 -1 -1 -8 -7 -0 1 2 1 -0 -2 -1 -0 -1 -0 -0 -1 -1 -2 -1 -1 -0 0 -0 -1 -2 -2 -3 -3 -3 -3 -3 -3 -3 -3 -3
-3 -3 -3 -2 -2 -2 -2 -2 -2 -1 -2 -2 -3 -1 1 0 -1 -2 -2 -1 -1 -1 -2 -1 -2 -2 -2 -1 -1 -0 -0 -1 -2 -2 -2 -2 -3 -3 -3 -3 -4 -3 -3 -3
-4 -4 -3 -3 -3 -3 -3 -2 -2 -2 -2 -2 -5 -2 0 -1 -1 -1 -2 -2 -2 -2 -2 -2 -3 -2 -2 -1 -1 -0 -1 -2 -2 -2 -2 -3 -3 -4 -4 -4 -3 -3 -5 -4
-5 -4 -3 -4 -3 -4 -3 -3 -2 -2 -3 -2 -2 -1 -1 -1 -2 -3 -3 -2 -2 -3 -3 -3 -3 -3 -2 -2 -1 -1 -2 -3 -3 -3 -4 -5 -5 -6 -5 -4 -3 -4 -4 -4
-6 -5 -5 -4 -4 -4 -4 -3 -3 -3 -3 -3 -2 -2 -2 -2 -2 -3 -2 -3 -3 -3 -4 -4 -3 -3 -2 -2 -1 -2 -3 -3 -3 -4 -6 -5 -6 -5 -5 -5 -3 -4 -4 -4
-6 -6 -6 -5 -5 -4 -4 -4 -4 -4 -4 -4 -4 -3 -3 -3 -4 -4 -3 -4 -4 -4 -4 -4 -4 -3 -3 -2 -2 -3 -4 -4 -4 -5 -5 -5 -6 -5 -5 -4 -4 -4 -5 -5
-7 -7 -7 -7 -6 -6 -6 -5 -4 -3 -3 -3 -4 -3 -4 -4 -4 -4 -5 -4 -4 -4 -4 -4 -4 -4 -3 -2 -3 -4 -4 -4 -4 -4 -5 -6 -6 -5 -6 -5 -5 -5 -5 -5
-8 -8 -8 -8 -7 -7 -5 -5 -4 -4 -4 -4 -5 -5 -4 -5 -5 -5 -5 -5 -5 -5 -5 -5 -4 -4 -3 -3 -4 -4 -4 -5 -4 -5 -5 -6 -7 -6 -6 -5 -5 -5 -5 -5
-8 -9 -8 -8 -7 -6 -5 -5 -5 -5 -4 -4 -4 -5 -5 -5 -5 -6 -5 -5 -6 -6 -5 -5 -4 -4 -4 -4 -5 -5 -4 -5 -5 -5 -6 -5 -5 -6 -6 -6 -6 -5 -4 -5
-8 -9 -8 -8 -8 -8 -6 -6 -6 -6 -6 -6 -6 -5 -5 -5 -6 -6 -6 -6 -6 -6 -5 -5 -5 -4 -5 -5 -5 -5 -5 -5 -5 -6 -6 -6 -6 -6 -6 -7 -6 -5 -4 -5
-8 -10 -9 -9 -9 -8 -7 -7 -7 -6 -6 -6 -7 -6 -6 -6 -6 -6 -6 -6 -6 -6 -5 -5 -5 -5 -5 -5 -5 -5 -5 -5 -6 -6 -6 -6 -7 -7 -6 -7 -7 -7 -6 -5
-9 -9 -9 -10 -10 -10 -9 -8 -8 -8 -7 -7 -7 -7 -7 -7 -7 -7 -7 -7 -6 -6 -6 -6 -5 -5 -6 -5 -5 -5 -5 -5 -5 -6 -6 -6 -6 -7 -7 -7 -8 -7 -6 -7
-10 -10 -10 -10 -9 -10 -10 -10 -10 -9 -9 -9 -9 -8 -8 -7 -7 -8 -7 -7 -7 -6 -6 -6 -6 -5 -6 -5 -5 -5 -5 -5 -6 -6 -6 -6 -7 -7 -6 -6 -6 -6 -6 -6
-11 -10 -11 -11 -10 -10 -9 -10 -10 -9 -10 -10 -11 -11 -9 -9 -8 -7 -7 -7 -7 -7 -6 -6 -6 -6 -6 -5 -5 -5 -6 -6 -6 -6 -6 -7 -7 -7 -7 -6 -6 -6 -6 -7
-13 -13 -12 -11 -11 -11 -10 -9 -10 -10 -10 -10 -11 -11 -10 -10 -9 -9 -8 -7 -7 -7 -7 -6 -6 -6 -6 -5 -6 -6 -6 -6 -6 -6 -7 -7 -7 -7 -7 -7 -7 -7 -7 -7
-13 -13 -13 -13 -13 -13 -13 -11 -10 -10 -10 -11 -11 -11 -11 -10 -10 -9 -8 -7 -7 -7 -7 -6 -6 -6 -5 -6 -6 -6 -6 -6 -6 -6 -6 -7 -7 -7 -7 -7 -7 -7 -7 -7